User: anonymous   Login
Location: Bush Observatory
(40.2653°N, 94.3194°W)
Time: 01:08:54
(UTC-06:00)
Language:

Cosmos 1933 Rocket - Orbit

View from above orbital plane
View from above orbital plane
View from above satellite
View from above satellite

Ground track
Ground track

The orbit data is extracted from the following two-line orbital elements,

1 18959U 88020B   17351.43976904  .00000081  00000-0  70259-5 0  9996
2 18959  82.5386  99.5881 0015438 251.0205 108.9338 14.83364173607748
Epoch (UTC): 17 December 2017 10:33:16
Eccentricity: 0.0015438
inclination: 82.5386°
perigee height: 608 km
apogee height: 629 km
right ascension of ascending node: 99.5881°
argument of perigee: 251.0205°
revolutions per day: 14.83364173
mean anomaly at epoch: 108.9338°
orbit number at epoch: 60774

The dashed part of the orbit path shows where the satellite is in the earth's shadow,  

DLR